sat.trackr.live / text

‹ back to catalog

STARLINK-35177

NORAD 65673 · 2025-211X

PAYLOAD ACTIVE UNKNOWN

§ Identity

Operator
Country
US
Launch date
2025-09-19
Launch site
AFWTR
Launch vehicle
Mass (kg)
RCS (m²)

Purposes: comms

External: N2YO · Heavens-Above · Gunter

§ Orbital elements

Epoch: 2026-09-19T09:06:02.600928Z

Period
93.91 min
Inclination
97.2847°
Eccentricity
0.0001273
Mean motion
15.33451362 rev/d
Perigee alt
464.7 km
Apogee alt
466.4 km
Semi-major
6,843.7 km
B*
4.8586e-4
RAAN
302.6612°
Arg perigee
105.8830°
Mean anomaly
254.2553°
Rev number
5,635

§ Raw data

STARLINK-351771 65673U 25211X   26262.37919677  .00015646  00000+0  48586-3 0  99902 65673  97.2847 302.6612 0001273 105.8830 254.2553 15.33451362 56352

JSON: /api/v1/satellites/65673 · /tle

For live sub-satellite position, see the globe view (requires WebGL).

§ Visibility from observer

Set your observer location to see the next 7 days of passes ≥ 10°. The values pass through the URL so the page stays shareable.

No JS? Fill the form by hand. The geolocation button needs JavaScript.